Вернуться в каталог

STARLINK-32503

АктивенСвязьVLEO
NORAD 62157·PAYLOAD·🇺🇸 United States

Запущен Nov 30, 2024 с Cape Canaveral Space Force Station

Loading…

Ближайшие Пролёты (ближайшие 24 часа)

TLE

СвежийSource: CelesTrak SupGP

Эпоха: Sep 15, 2026, 01:58 UTC

1 62157C 24224U   26258.08243056 -.00058086  00000+0 -21043-2 0  2584
2 62157  43.0008 175.9430 0001352 278.1830 284.6095 15.27600673    19

Отслеживайте STARLINK-32503 в реальном времени с AllMySat

Download on the App Store